This is the latest recevied weather packets stored in our database for station/object W0WC. If no packets are shown the sender has not sent any weather packets the latest 10 day(s).
| Time | Temp. | Humidity | Pressure | Rain* | Wind** | Luminosity | Snow |
|---|---|---|---|---|---|---|---|
| 1777164519 | 21.67° C | 66% | 1009 hPa | 0 mm | - | 0 W/m² | - |
| 1777164219 | 22.22° C | 65% | 1008.8 hPa | 0 mm | - | 0 W/m² | - |
| 1777163914 | 22.22° C | 65% | 1008.2 hPa | 0 mm | - | 0 W/m² | - |
| 1777163614 | 22.22° C | 64% | 1008.2 hPa | 0 mm | - | 1 W/m² | - |
| 1777163310 | 22.22° C | 64% | 1008.1 hPa | 0 mm | - | 1 W/m² | - |
| 1777163006 | 22.22° C | 65% | 1008 hPa | 0 mm | - | 1 W/m² | - |
| 1777162701 | 22.22° C | 64% | 1007.7 hPa | 0 mm | - | 1 W/m² | - |
| 1777162396 | 22.22° C | 64% | 1007.2 hPa | 0 mm | - | 1 W/m² | - |
| 1777162095 | 22.78° C | 64% | 1007.6 hPa | 0 mm | - | 1 W/m² | - |
| 1777161792 | 22.78° C | 63% | 1007.8 hPa | 0 mm | - | 1 W/m² | - |
| 1777161489 | 22.78° C | 63% | 1007.6 hPa | 0 mm | - | 2 W/m² | - |
| 1777161184 | 22.78° C | 63% | 1007.6 hPa | 0 mm | - | 3 W/m² | - |
| 1777160880 | 22.78° C | 64% | 1007.5 hPa | 0 mm | - | 5 W/m² | - |
| 1777160576 | 22.78° C | 64% | 1007.3 hPa | 0 mm | - | 7 W/m² | - |
| 1777160272 | 22.78° C | 64% | 1007.6 hPa | 0 mm | - | 10 W/m² | - |
| 1777159968 | 22.78° C | 63% | 1007.1 hPa | 0 mm | - | 13 W/m² | - |
| 1777159664 | 22.78° C | 63% | 1006.7 hPa | 0 mm | - | 28 W/m² | - |
| 1777159361 | 22.78° C | 63% | 1006.8 hPa | 0 mm | - | 29 W/m² | - |
| 1777159057 | 23.33° C | 62% | 1006.7 hPa | 0 mm | - | 40 W/m² | - |
| 1777158753 | 23.33° C | 61% | 1006.7 hPa | 0 mm | - | 54 W/m² | - |
| 1777158446 | 23.89° C | 61% | 1007 hPa | 0 mm | - | 82 W/m² | - |
| 1777158142 | 23.89° C | 60% | 1007.7 hPa | 0 mm | - | 150 W/m² | - |
| 1777157838 | 23.89° C | 60% | 1007.9 hPa | 0 mm | - | 136 W/m² | - |
| 1777157534 | 23.33° C | 60% | 1007.9 hPa | 0 mm | - | 105 W/m² | - |
| 1777157231 | 23.89° C | 60% | 1008.8 hPa | 0 mm | - | 34 W/m² | - |
* Rain latest hour (hover to see other rain measurements)
** Current wind speed in m/s (hover to see current wind gust speed)